Weather in Talalaivka

Ukraine / Chernihiv Region     50°50′13″N   33°08′26″E
temp.,
°C
wind,
m/s
gust,
m/s
humid.,
%
clouds,
%
prec.,
mm/h
press.,
hPa
HPBL,
m
14 april, wed
wed1400:00+9sse3786100 0.0 1019213
03:00+8sse358996 0.0 101991
06:00+8se3791100 0.0 1018187
09:00+9sse3787100 0.1 1018315
12:00+14sse346476 0.1 10171088
15:00+14ese4459100 0.4 10151135
18:00+12ese5671100 0.6 1015363
21:00+10se228796 0.6 101538
15 april, thu
thu1500:00+9se2286100 0.1 101435
03:00+9e2394100 1.0 1013121
06:00+8sse359696 0.8 1013171
09:00+11sse4577100 0.9 1013533
12:00+12s4662100 0.1 10131074
15:00+12sse246250 0.1 1011884
18:00+11sse347599 0.6 1011411
21:00+8s3789100 0.9 1012345
16 april, fri
fri1600:00+7ese369382 0.0 1011161
03:00+7ese499499 0.1 1011276
06:00+5se3897100 0.0 1012212
09:00+9se577959 0.1 1013806
12:00+8se588592 0.2 1014677
15:00+10se5875100 0.4 1014841
18:00+9se4778100 0.1 1015622
21:00+8sse359075 0.2 1016288
17 april, sat
sat1700:00+7se2590100 0.1 1017263
03:00+7se229190 0.1 101857
06:00+5s229327 0.1 101923
09:00+8wsw2280100 0.1 1019288
12:00+11nw2262100 0.0 10191015
15:00+11n556899 0.2 1019837
18:00+9nw4777100 0.1 1018432
21:00+9w4887100 0.5 1018478
18 april, sun
sun1800:00+9w61089100 0.4 1017647
03:00+7n2494100 0.6 1017277
06:00+7ssw019699 0.0 1017157
09:00+7se5794100 0.2 1019486
12:00+7se6888100 0.2 1021780
15:00+9s357564 0.2 1022796
18:00+11n236974 0.0 1022459
21:00+7nne34855 0.0 102372